[[{"header":{"parameterUnit":"m.s-1","parameterCategory":1,"la1":30.2991,"la2":30.254,"lo1":-89.0895,"lo2":-89.0444,"dy":0.0017,"dx":0.0017,"nx":28,"ny":28,"refTime":"2025-12-11T03:00:00:Z","depth":0,"parameterNumber":2,"parameterNumberName":"U-component_of_WINDS"},"data":[0,0,0,0,0,0,0,0,0,0,0,0,0,0,0,0,0,0,0,0,0,0,0,0,0,0,0,0,0,0,0,0,0,0,0,0,0,0,0,0,0,0,0,0,0,0,0,0,0,0,0,0,0,0,0,0,0,0,0.6839,0.6839,0,0.6856,0.6857,0.6857,0.6878,0.6878,0.6878,0.6879,0.6896,0.6896,0.6896,0,0,0,0,0,0,0,0,0,0,0,0,0,0.6823,0.6823,0.6839,0.6839,0.6839,0.6856,0.6857,0.6857,0.6878,0.6878,0.6879,0.6879,0.6896,0.6896,0.6896,0,0,0,0,0,0,0,0,0,0,0,0,0,0.6834,0.6823,0.6839,0.6852,0.6853,0.6856,0.6857,0.6857,0.6878,0.6878,0.6879,0.6879,0.6896,0.6896,0.6896,0.6888,0,0,0.6897,0.6897,0,0,0,0,0,0,0,0,0.6833,0.6834,0.685,0.6851,0.6852,0.6865,0.6857,0.6867,0.6878,0.6868,0.6879,0.6879,0.6885,0.6887,0.6889,0.6889,0.689,0.6897,0.6897,0.6897,0.6898,0,0,0,0,0,0,0,0.6832,0.6834,0.6846,0.685,0.6851,0.6857,0.6859,0.6859,0.6874,0.6869,0.6871,0.6873,0.6886,0.6889,0.6889,0.689,0.6897,0.6897,0.6898,0.6898,0.6885,0.6884,0,0,0,0,0,0,0.683,0.6833,0.6845,0.6846,0.6844,0.6856,0.6859,0.6861,0.6874,0.6876,0.6872,0.6873,0.6888,0.6889,0.689,0.6881,0.6897,0.6898,0.6898,0.6885,0.6884,0.6884,0,0,0,0,0,0,0.6829,0.6831,0.6844,0.684,0.6842,0.6856,0.6858,0.6861,0.6863,0.6876,0.6879,0.6872,0.6888,0.689,0.6889,0.6882,0.6898,0.6898,0.6886,0.6885,0.6884,0.6863,0,0,0,0,0,0,0.6829,0.683,0.6827,0.684,0.6842,0.6843,0.6858,0.6861,0.6864,0.6865,0.6877,0.6879,0.6889,0.6888,0.6889,0.6883,0.6898,0.6886,0.6885,0.6884,0.6864,0.6862,0.6859,0,0,0,0,0,0.6828,0.682,0.6827,0.6828,0.6839,0.6842,0.6844,0.6855,0.6863,0.686,0.6869,0.6879,0.6883,0.6888,0.6889,0.6883,0.6887,0.6886,0.6885,0.6866,0.6862,0.6859,0,0,0,0,0,0,0.6806,0.6822,0.683,0.6826,0.6833,0.6846,0.6842,0.6852,0.6856,0.6857,0.6872,0.6874,0.6871,0.6877,0.6882,0.6875,0.6886,0.6885,0.6872,0.6869,0.6866,0.6864,0.6898,0,0,0,0,0,0.6801,0.6803,0.6817,0.6812,0.6815,0.6828,0.683,0.6839,0.6846,0.6849,0.6857,0.6864,0.6867,0.6868,0.6871,0.6866,0.6868,0.6862,0.686,0.6857,0.6856,0.6853,0.6851,0.688,0.688,0.688,0,0,0.679,0.6799,0.6799,0.6808,0.6814,0.6815,0.683,0.683,0.6831,0.6849,0.6848,0.6855,0.6863,0.6859,0.6858,0.6864,0.6849,0.6856,0.6854,0.6854,0.6852,0.6849,0.6847,0.688,0.688,0.688,0,0,0.6771,0.6778,0.6775,0.6781,0.679,0.6799,0.6798,0.681,0.6815,0.6815,0.6828,0.683,0.6834,0.684,0.6843,0.6827,0.6836,0.6827,0.6814,0.6811,0.6809,0.6807,0.68,0.6798,0.6826,0.6826,0.6826,0,0.6756,0.6758,0.6772,0.6771,0.6775,0.6791,0.6788,0.6793,0.6803,0.6805,0.6811,0.6818,0.6825,0.6823,0.6819,0.6821,0.6821,0.6825,0.6808,0.6806,0.6804,0.6798,0.6796,0.6825,0.6825,0.6825,0.6825,0,0.6739,0.674,0.6737,0.6746,0.6749,0.6747,0.6761,0.6762,0.6771,0.6779,0.6779,0.6788,0.6794,0.6794,0.6802,0.6793,0.6797,0.6805,0.6816,0.68,0.6795,0.6793,0.6823,0.6824,0.6824,0.6824,0,0,0.6704,0.6722,0.6721,0.6725,0.6737,0.6739,0.6738,0.6744,0.6745,0.6751,0.6751,0.6755,0.6763,0.6767,0.6776,0.6774,0.676,0.6783,0.6784,0.6778,0.675,0.6743,0.674,0.6767,0.6767,0.6766,0.6749,0,0.6686,0.6686,0.6699,0.6695,0.6696,0.6712,0.6712,0.6719,0.6727,0.6729,0.6738,0.6741,0.6752,0.6754,0.6753,0.6762,0.6755,0.6764,0.6766,0.6766,0.6762,0.6737,0.6729,0.6713,0.6747,0.6747,0.6747,0,0.6665,0.6671,0.6667,0.6679,0.668,0.668,0.6686,0.6688,0.6697,0.6703,0.6708,0.6719,0.6719,0.673,0.6731,0.6736,0.6738,0.6743,0.6743,0.6742,0.6754,0.6735,0.6708,0.6705,0.6744,0.6744,0.6744,0,0.6639,0.6646,0.6645,0.6648,0.6663,0.6662,0.6668,0.6678,0.6681,0.6687,0.6688,0.6694,0.6697,0.6701,0.6714,0.6721,0.6712,0.6725,0.6717,0.6716,0.6713,0.6713,0.6684,0.6716,0.6716,0.6716,0.6716,0,0.6617,0.6614,0.6634,0.6633,0.663,0.6645,0.6641,0.6649,0.6658,0.6658,0.6673,0.6673,0.669,0.6692,0.6702,0.6701,0.6702,0.6707,0.6709,0.6705,0.6704,0.6705,0.6706,0.6716,0.6716,0.6716,0.6716,0,0.6587,0.6601,0.66,0.6615,0.6618,0.6615,0.6628,0.6627,0.6637,0.6638,0.6639,0.6653,0.6657,0.667,0.6677,0.6683,0.6678,0.6684,0.6675,0.6677,0.6668,0.6668,0.6638,0.6635,0.6669,0.6669,0.6669,0,0.6572,0.657,0.6584,0.6586,0.6592,0.6594,0.6597,0.6613,0.6615,0.6626,0.6624,0.6629,0.6633,0.6638,0.6649,0.6655,0.666,0.6649,0.666,0.6656,0.6659,0.6658,0.6658,0.6646,0.6646,0.6645,0.6645,0,0.6542,0.6549,0.6553,0.656,0.6563,0.6569,0.6576,0.6576,0.6593,0.6596,0.66,0.6603,0.661,0.6615,0.6622,0.6628,0.6639,0.6641,0.664,0.6635,0.6629,0.6631,0.6667,0.6642,0.6642,0.6642,0.6642,0.6643,0.6519,0.6518,0.6528,0.6532,0.6539,0.6545,0.6545,0.6555,0.6559,0.6566,0.6575,0.6578,0.6587,0.6598,0.6604,0.6606,0.6612,0.661,0.6609,0.6608,0.6606,0.663,0.6608,0.6608,0.6608,0.6608,0.6608,0,0.6489,0.6497,0.6501,0.651,0.6513,0.6524,0.6532,0.6534,0.6537,0.6545,0.6549,0.6554,0.6559,0.6571,0.6576,0.6576,0.6581,0.6577,0.6576,0.6578,0.66,0.6601,0.6573,0.6573,0.6573,0.6573,0.6573,0.6573,0.6474,0.6473,0.6481,0.6484,0.6492,0.6495,0.6498,0.6504,0.6511,0.6515,0.6519,0.6527,0.6537,0.6544,0.6549,0.6552,0.6553,0.6547,0.6552,0.6573,0.6576,0.6579,0.658,0.6548,0.6548,0.6529,0.6529,0.6529]},{"header":{"parameterUnit":"m.s-1","parameterCategory":1,"la1":30.2991,"la2":30.254,"lo1":-89.0895,"lo2":-89.0444,"dy":0.0017,"dx":0.0017,"nx":28,"ny":28,"refTime":"2025-12-11T03:00:00:Z","depth":0,"parameterNumber":3,"parameterNumberName":"V-component_of_WINDS"},"data":[0,0,0,0,0,0,0,0,0,0,0,0,0,0,0,0,0,0,0,0,0,0,0,0,0,0,0,0,0,0,0,0,0,0,0,0,0,0,0,0,0,0,0,0,0,0,0,0,0,0,0,0,0,0,0,0,0,0,-5.2087,-5.2088,0,-5.2222,-5.2224,-5.2225,-5.2168,-5.2164,-5.2161,-5.2158,-5.2296,-5.2303,-5.2309,0,0,0,0,0,0,0,0,0,0,0,0,0,-5.1778,-5.1784,-5.2086,-5.2088,-5.209,-5.2222,-5.2224,-5.2226,-5.2168,-5.2164,-5.216,-5.2156,-5.2294,-5.2302,-5.231,0,0,0,0,0,0,0,0,0,0,0,0,0,-5.1913,-5.1786,-5.2086,-5.2077,-5.2078,-5.2221,-5.2224,-5.2226,-5.2169,-5.2164,-5.2159,-5.2155,-5.2291,-5.2301,-5.2311,-5.2472,0,0,-5.2342,-5.2346,0,0,0,0,0,0,0,0,-5.1905,-5.1924,-5.2077,-5.2078,-5.2079,-5.2173,-5.2166,-5.2308,-5.217,-5.2134,-5.2158,-5.2152,-5.2259,-5.2271,-5.2308,-5.2478,-5.2484,-5.2343,-5.2349,-5.2353,-5.2356,0,0,0,0,0,0,0,-5.1896,-5.1918,-5.214,-5.2079,-5.208,-5.2066,-5.208,-5.2192,-5.2223,-5.2137,-5.2133,-5.215,-5.2259,-5.2298,-5.231,-5.2486,-5.2342,-5.2351,-5.2358,-5.2362,-5.2797,-5.2802,0,0,0,0,0,0,-5.1886,-5.1911,-5.2136,-5.2144,-5.1978,-5.2076,-5.2091,-5.2148,-5.2221,-5.2228,-5.2154,-5.2147,-5.2283,-5.2299,-5.2315,-5.251,-5.2353,-5.2363,-5.2368,-5.2791,-5.2798,-5.2804,0,0,0,0,0,0,-5.188,-5.1907,-5.213,-5.2026,-5.2054,-5.2086,-5.215,-5.2153,-5.2192,-5.2234,-5.2239,-5.2189,-5.228,-5.2301,-5.2434,-5.2514,-5.2367,-5.2376,-5.2785,-5.2793,-5.2801,-5.2899,0,0,0,0,0,0,-5.1871,-5.1905,-5.1966,-5.2028,-5.2059,-5.2247,-5.2155,-5.2159,-5.221,-5.2202,-5.2268,-5.2274,-5.2278,-5.2419,-5.2444,-5.2525,-5.2384,-5.2778,-5.2789,-5.2798,-5.2889,-5.291,-5.2928,0,0,0,0,0,-5.1861,-5.1988,-5.197,-5.1997,-5.2137,-5.2251,-5.2269,-5.2271,-5.2217,-5.2279,-5.2306,-5.2272,-5.2501,-5.2433,-5.246,-5.2546,-5.2773,-5.2786,-5.2798,-5.288,-5.2906,-5.2927,0,0,0,0,0,0,-5.1934,-5.1996,-5.1976,-5.2127,-5.2185,-5.2241,-5.232,-5.2297,-5.2371,-5.236,-5.2359,-5.2374,-5.2512,-5.2542,-5.2465,-5.2706,-5.2628,-5.2647,-5.2682,-5.2706,-5.2725,-5.2716,-5.2393,0,0,0,0,0,-5.1968,-5.2056,-5.2105,-5.2233,-5.2263,-5.2287,-5.2337,-5.2333,-5.2392,-5.2416,-5.2453,-5.2512,-5.2597,-5.2653,-5.2733,-5.2892,-5.2907,-5.2965,-5.2984,-5.3,-5.3016,-5.3105,-5.3132,-5.2845,-5.2845,-5.2844,0,0,-5.2038,-5.2083,-5.2138,-5.2249,-5.2293,-5.2385,-5.2308,-5.2407,-5.2476,-5.2431,-5.256,-5.2589,-5.2654,-5.2801,-5.2868,-5.283,-5.3098,-5.3015,-5.3028,-5.3036,-5.312,-5.3147,-5.3171,-5.2853,-5.2852,-5.285,0,0,-5.2214,-5.2256,-5.2369,-5.2415,-5.2483,-5.2498,-5.2525,-5.2586,-5.2604,-5.2733,-5.2702,-5.2783,-5.2929,-5.2978,-5.3022,-5.3218,-5.319,-5.3244,-5.3345,-5.3432,-5.3454,-5.3474,-5.3546,-5.3572,-5.326,-5.326,-5.326,0,-5.2294,-5.2431,-5.243,-5.2533,-5.2584,-5.2548,-5.2663,-5.2707,-5.2798,-5.2834,-5.279,-5.2974,-5.3016,-5.3175,-5.3223,-5.3259,-5.3291,-5.3237,-5.3451,-5.3471,-5.349,-5.3559,-5.3585,-5.3266,-5.3265,-5.3265,-5.3264,0,-5.2526,-5.2622,-5.2704,-5.2794,-5.2854,-5.2962,-5.2978,-5.3038,-5.303,-5.305,-5.3182,-5.3231,-5.3321,-5.3358,-5.335,-5.3517,-5.3492,-5.345,-5.3372,-5.3523,-5.3588,-5.3614,-5.3275,-5.3273,-5.3271,-5.3269,0,0,-5.2752,-5.2841,-5.2872,-5.2913,-5.2986,-5.306,-5.3167,-5.3256,-5.3309,-5.3373,-5.3464,-5.3589,-5.3551,-5.3601,-5.3598,-5.3673,-5.3829,-5.3622,-5.3624,-5.3661,-5.4018,-5.4051,-5.4081,-5.381,-5.3815,-5.3819,-5.4013,0,-5.2935,-5.3124,-5.3127,-5.3301,-5.339,-5.3358,-5.3452,-5.3507,-5.3529,-5.3608,-5.3631,-5.3721,-5.3663,-5.3693,-5.3766,-5.3794,-5.3901,-5.378,-5.3896,-5.39,-5.3883,-5.4114,-5.4149,-5.433,-5.4038,-5.4042,-5.4045,0,-5.3174,-5.3247,-5.343,-5.3492,-5.353,-5.3614,-5.3697,-5.3773,-5.3835,-5.3846,-5.3902,-5.3889,-5.3999,-5.3917,-5.4069,-5.3987,-5.4035,-5.4056,-5.4063,-5.4075,-5.3983,-5.4135,-5.4387,-5.4415,-5.4085,-5.4082,-5.4079,0,-5.3324,-5.3467,-5.3596,-5.3632,-5.3707,-5.3767,-5.3801,-5.3859,-5.3913,-5.3985,-5.4021,-5.4104,-5.4151,-5.4216,-5.4226,-5.4165,-5.438,-5.4298,-5.4393,-5.4393,-5.4441,-5.4438,-5.4707,-5.4469,-5.4468,-5.4468,-5.4467,0,-5.3529,-5.3643,-5.3665,-5.3744,-5.3871,-5.3873,-5.3999,-5.4028,-5.4079,-5.4164,-5.4141,-5.4221,-5.4228,-5.431,-5.4318,-5.4445,-5.4465,-5.4478,-5.4479,-5.4481,-5.448,-5.4513,-5.4502,-5.4475,-5.4473,-5.4472,-5.4471,0,-5.3718,-5.3737,-5.3876,-5.3936,-5.3953,-5.4045,-5.4096,-5.4172,-5.4191,-5.4299,-5.4325,-5.4355,-5.4452,-5.4467,-5.458,-5.4585,-5.4737,-5.4724,-5.4717,-5.4716,-5.4811,-5.4803,-5.5112,-5.5153,-5.4886,-5.4888,-5.489,0,-5.3849,-5.3936,-5.4006,-5.4061,-5.4099,-5.4188,-5.4244,-5.4249,-5.4308,-5.4387,-5.4454,-5.4548,-5.4624,-5.4779,-5.4811,-5.4898,-5.4888,-5.4991,-5.4901,-5.4901,-5.4893,-5.4888,-5.4898,-5.5008,-5.5011,-5.5014,-5.5016,0,-5.408,-5.4085,-5.4167,-5.4252,-5.432,-5.4387,-5.445,-5.4497,-5.4511,-5.4579,-5.4677,-5.4736,-5.4852,-5.4946,-5.5033,-5.5067,-5.5045,-5.5043,-5.507,-5.5075,-5.5068,-5.5075,-5.4766,-5.5037,-5.5035,-5.5033,-5.5032,-5.5031,-5.4245,-5.4322,-5.4384,-5.4476,-5.4525,-5.4585,-5.466,-5.469,-5.4772,-5.4868,-5.4866,-5.4975,-5.5036,-5.515,-5.519,-5.5276,-5.5243,-5.5281,-5.5291,-5.5301,-5.5312,-5.5053,-5.5291,-5.5291,-5.529,-5.529,-5.5289,0,-5.4477,-5.4516,-5.46,-5.4691,-5.4764,-5.4736,-5.4805,-5.4868,-5.4964,-5.5024,-5.5099,-5.5213,-5.5305,-5.5345,-5.5435,-5.5496,-5.5488,-5.552,-5.5516,-5.5525,-5.5335,-5.5304,-5.5525,-5.5525,-5.5525,-5.5525,-5.5525,-5.5525,-5.4606,-5.4736,-5.4749,-5.4902,-5.494,-5.5047,-5.5089,-5.5145,-5.5193,-5.5322,-5.5399,-5.5424,-5.5476,-5.557,-5.5653,-5.5663,-5.5698,-5.5735,-5.574,-5.5562,-5.5538,-5.5516,-5.5486,-5.5742,-5.5742,-5.5923,-5.5925,-5.5926]}]]